Location: Cowley
(49.5667°N, 114.0667°W)
Time: 17:55:21
(UTC+00:00)

Envisat - Visible Passes

Search period start: 03 October 2022 00:00
Search period end: 13 October 2022 00:00
Orbit: 764 x 765 km, 98.2° (Epoch: 03 October)

Date Brightness Start Highest point End Pass type
(mag) Time Alt. Az. Time Alt. Az. Time Alt. Az.
03 Oct 5.7 10:41:48 10° NE 10:44:57 16° E 10:48:05 10° SE visible
03 Oct 2.9 12:19:28 10° NNE 12:24:34 79° WNW 12:29:39 10° SSW visible
04 Oct 3.8 11:42:34 10° NNE 11:47:34 52° E 11:52:30 10° S visible
05 Oct 5.0 11:06:06 10° NE 11:10:21 26° E 11:14:34 10° SSE visible
05 Oct 3.2 12:44:42 10° N 12:49:36 49° WNW 12:54:28 10° SW visible
06 Oct 5.9 10:30:38 10° ENE 10:32:55 13° E 10:35:12 10° ESE visible
06 Oct 3.0 12:07:36 10° NNE 12:12:43 85° ESE 12:17:48 10° SSW visible
07 Oct 4.2 11:30:48 10° NNE 11:35:38 42° E 11:40:26 10° SSE visible
07 Oct 3.8 13:10:05 10° N 13:14:32 31° WNW 13:18:58 10° SW visible
08 Oct 5.3 10:54:31 10° NE 10:58:22 21° E 11:02:11 10° SE visible
08 Oct 3.0 12:32:45 10° N 12:37:47 61° WNW 12:42:46 10° SSW visible
09 Oct 3.3 11:55:45 10° NNE 12:00:50 69° ESE 12:05:54 10° S visible
10 Oct 4.6 11:19:05 10° NNE 11:23:42 34° E 11:28:16 10° SSE visible
10 Oct 3.5 12:58:03 10° N 13:02:44 38° WNW 13:07:25 10° SW visible
11 Oct 5.6 10:43:03 10° NE 10:46:21 17° E 10:49:37 10° SE visible
11 Oct 2.9 12:20:50 10° N 12:25:56 75° WNW 12:31:00 10° SSW visible
12 Oct 3.7 11:43:55 10° NNE 11:48:56 55° E 11:53:54 10° S visible
